• In Czech Republic
  • List of Countries
  • For 7 days
  • Water Temperature
  • Satellite Maps
  • Weather Map
  • Weather Widgets
  • user-avatar
    Login

    Hourly Weather Shkoder

    Today, 19 November, Sunday

    Time Temperature Precipitation Wind Pressure Humidity
    00:00 +8°C° 0 mm 2 mps 737 mmHg 83%
    01:00 +8°C° 0 mm 2 mps 737 mmHg 83%
    02:00 +8°C° 0 mm 2 mps 737 mmHg 83%
    03:00 +8°C° 0 mm 2 mps 737 mmHg 84%
    04:00 +8°C° 0 mm 2 mps 737 mmHg 84%
    05:00 +7°C° 0 mm 2 mps 737 mmHg 84%
    06:00 +7°C° 0 mm 2 mps 737 mmHg 84%
    07:00 +7°C° 0 mm 2 mps 737 mmHg 84%
    08:00 +9°C° 0 mm 2 mps 737 mmHg 79%
    09:00 +10°C° 0 mm 2 mps 737 mmHg 74%
    10:00 +12°C° 0 mm 2 mps 737 mmHg 69%
    11:00 +13°C° 0 mm 1 mps 737 mmHg 67%
    12:00 +13°C° 0 mm 1 mps 736 mmHg 65%
    13:00 +14°C° 0 mm 1 mps 736 mmHg 63%
    14:00 +13°C° 0 mm 1 mps 736 mmHg 68%
    15:00 +12°C° 0 mm 1 mps 736 mmHg 72%
    16:00 +12°C° 0 mm 1 mps 735 mmHg 76%
    17:00 +11°C° 0.1 mm 1 mps 735 mmHg 78%
    18:00 +11°C° 0.1 mm 1 mps 735 mmHg 81%
    19:00 +11°C° 0.1 mm 1 mps 735 mmHg 83%
    20:00 +9°C° 0.4 mm 2 mps 736 mmHg 85%
    21:00 +9°C° 0.4 mm 2 mps 736 mmHg 87%
    22:00 +9°C° 0.4 mm 2 mps 736 mmHg 89%
    23:00 +9°C° 0.6 mm 3 mps 736 mmHg 90%

    Tomorrow, 20 November, Monday

    Time Temperature Precipitation Wind Pressure Humidity
    00:00 +8°C° 0.6 mm 3 mps 737 mmHg 91%
    01:00 +8°C° 0.6 mm 3 mps 737 mmHg 92%
    02:00 +7°C° 0.8 mm 3 mps 737 mmHg 89%
    03:00 +6°C° 0.8 mm 4 mps 737 mmHg 87%
    04:00 +5°C° 0.8 mm 4 mps 738 mmHg 85%
    05:00 +4°C° 0.2 mm 4 mps 738 mmHg 84%
    06:00 +4°C° 0.2 mm 4 mps 739 mmHg 83%
    07:00 +4°C° 0.2 mm 3 mps 739 mmHg 82%
    08:00 +4°C° 0 mm 4 mps 740 mmHg 76%
    09:00 +5°C° 0 mm 4 mps 741 mmHg 71%
    10:00 +6°C° 0 mm 4 mps 741 mmHg 65%
    11:00 +7°C° 0 mm 4 mps 741 mmHg 63%
    12:00 +8°C° 0 mm 3 mps 741 mmHg 60%
    13:00 +8°C° 0 mm 3 mps 742 mmHg 57%
    14:00 +7°C° 0 mm 3 mps 742 mmHg 60%
    15:00 +5°C° 0 mm 3 mps 742 mmHg 64%
    16:00 +6°C° 0 mm 2 mps 742 mmHg 67%
    17:00 +4°C° 0 mm 3 mps 743 mmHg 69%
    18:00 +3°C° 0 mm 3 mps 743 mmHg 70%
    19:00 +2°C° 0 mm 3 mps 744 mmHg 72%
    20:00 +2°C° 0 mm 3 mps 744 mmHg 71%
    21:00 +3°C° 0 mm 2 mps 744 mmHg 70%
    22:00 +3°C° 0 mm 2 mps 745 mmHg 69%
    23:00 +3°C° 0 mm 2 mps 745 mmHg 67%

    Day after tomorrow, 21 November, Tuesday

    Time Temperature Precipitation Wind Pressure Humidity
    00:00 +3°C° 0 mm 2 mps 744 mmHg 65%
    01:00 +3°C° 0 mm 2 mps 744 mmHg 62%
    02:00 +3°C° 0 mm 2 mps 744 mmHg 61%
    03:00 +3°C° 0 mm 2 mps 744 mmHg 59%
    04:00 +3°C° 0 mm 2 mps 744 mmHg 57%
    05:00 +4°C° 0 mm 2 mps 744 mmHg 57%
    06:00 +4°C° 0 mm 2 mps 744 mmHg 57%
    07:00 +5°C° 0 mm 1 mps 744 mmHg 57%
    08:00 +7°C° 0 mm 1 mps 744 mmHg 55%
    09:00 +8°C° 0 mm 1 mps 744 mmHg 53%
    10:00 +10°C° 0 mm 1 mps 744 mmHg 51%
    11:00 +9°C° 0 mm 2 mps 743 mmHg 52%
    12:00 +10°C° 0 mm 2 mps 743 mmHg 54%
    13:00 +10°C° 0 mm 2 mps 743 mmHg 55%
    14:00 +9°C° 0 mm 2 mps 743 mmHg 60%
    15:00 +8°C° 0 mm 2 mps 743 mmHg 65%
    16:00 +8°C° 0 mm 1 mps 743 mmHg 70%
    17:00 +7°C° 0 mm 1 mps 743 mmHg 71%
    18:00 +7°C° 0 mm 1 mps 743 mmHg 72%
    19:00 +6°C° 0 mm 1 mps 744 mmHg 73%
    20:00 +5°C° 0 mm 2 mps 744 mmHg 73%
    21:00 +5°C° 0 mm 2 mps 744 mmHg 74%
    22:00 +5°C° 0 mm 2 mps 744 mmHg 74%
    23:00 +5°C° 0 mm 2 mps 744 mmHg 74%

    22 November, Wednesday

    Time Temperature Precipitation Wind Pressure Humidity
    00:00 +6°C° 0 mm 2 mps 744 mmHg 75%
    01:00 +6°C° 0 mm 2 mps 744 mmHg 75%
    02:00 +6°C° 0 mm 2 mps 744 mmHg 75%
    03:00 +6°C° 0 mm 2 mps 743 mmHg 76%
    04:00 +6°C° 0 mm 2 mps 743 mmHg 76%
    05:00 +6°C° 0 mm 2 mps 743 mmHg 76%
    06:00 +7°C° 0 mm 1 mps 744 mmHg 76%
    07:00 +7°C° 0 mm 1 mps 744 mmHg 76%
    08:00 +9°C° 0 mm 1 mps 744 mmHg 72%
    09:00 +11°C° 0 mm 1 mps 744 mmHg 69%
    10:00 +12°C° 0 mm 1 mps 744 mmHg 65%
    11:00 +13°C° 0 mm 1 mps 744 mmHg 65%
    12:00 +13°C° 0 mm 1 mps 743 mmHg 65%
    13:00 +14°C° 0 mm 1 mps 743 mmHg 65%
    14:00 +13°C° 0 mm 1 mps 743 mmHg 70%
    15:00 +12°C° 0 mm 1 mps 743 mmHg 75%
    16:00 +11°C° 0 mm 1 mps 743 mmHg 81%
    17:00 +10°C° 0 mm 1 mps 743 mmHg 81%
    18:00 +10°C° 0 mm 1 mps 744 mmHg 82%
    19:00 +9°C° 0 mm 1 mps 744 mmHg 83%
    20:00 +9°C° 0 mm 1 mps 744 mmHg 82%
    21:00 +9°C° 0 mm 1 mps 744 mmHg 81%
    22:00 +9°C° 0 mm 1 mps 745 mmHg 80%
    23:00 +9°C° 0 mm 1 mps 745 mmHg 79%

    23 November, Thursday

    Time Temperature Precipitation Wind Pressure Humidity
    00:00 +9°C° 0 mm 1 mps 745 mmHg 78%
    01:00 +9°C° 0 mm 1 mps 745 mmHg 78%
    02:00 +9°C° 0 mm 1 mps 745 mmHg 77%
    03:00 +9°C° 0 mm 1 mps 745 mmHg 76%
    04:00 +9°C° 0 mm 1 mps 745 mmHg 75%
    05:00 +8°C° 0 mm 1 mps 745 mmHg 74%
    06:00 +8°C° 0 mm 1 mps 745 mmHg 73%
    07:00 +8°C° 0 mm 1 mps 745 mmHg 71%
    08:00 +10°C° 0 mm 1 mps 745 mmHg 68%
    09:00 +12°C° 0 mm 1 mps 745 mmHg 64%
    10:00 +14°C° 0 mm 1 mps 746 mmHg 61%
    11:00 +15°C° 0 mm 1 mps 745 mmHg 61%
    12:00 +15°C° 0 mm 1 mps 745 mmHg 61%
    13:00 +16°C° 0 mm 1 mps 745 mmHg 61%
    14:00 +14°C° 0 mm 1 mps 745 mmHg 67%
    15:00 +13°C° 0 mm 1 mps 745 mmHg 73%
    16:00 +12°C° 0 mm 1 mps 745 mmHg 79%
    17:00 +11°C° 0 mm 1 mps 746 mmHg 80%
    18:00 +11°C° 0 mm 1 mps 746 mmHg 81%
    19:00 +10°C° 0 mm 1 mps 746 mmHg 82%
    20:00 +10°C° 0 mm 1 mps 747 mmHg 80%
    21:00 +10°C° 0 mm 1 mps 747 mmHg 79%
    22:00 +10°C° 0 mm 1 mps 747 mmHg 77%
    23:00 +10°C° 0 mm 1 mps 747 mmHg 75%

    24 November, Friday

    Time Temperature Precipitation Wind Pressure Humidity
    00:00 +10°C° 0 mm 1 mps 747 mmHg 73%
    01:00 +10°C° 0 mm 1 mps 747 mmHg 72%
    02:00 +9°C° 0 mm 1 mps 747 mmHg 70%
    03:00 +9°C° 0 mm 1 mps 747 mmHg 68%
    04:00 +9°C° 0 mm 1 mps 747 mmHg 67%
    05:00 +9°C° 0 mm 1 mps 747 mmHg 66%
    06:00 +9°C° 0 mm 1 mps 747 mmHg 65%
    07:00 +9°C° 0 mm 1 mps 747 mmHg 64%
    08:00 +11°C° 0 mm 1 mps 747 mmHg 62%
    09:00 +13°C° 0 mm 1 mps 747 mmHg 59%
    10:00 +15°C° 0 mm 1 mps 747 mmHg 57%
    11:00 +15°C° 0 mm 1 mps 747 mmHg 58%
    12:00 +16°C° 0 mm 1 mps 747 mmHg 58%
    13:00 +16°C° 0 mm 1 mps 746 mmHg 59%
    14:00 +15°C° 0 mm 1 mps 746 mmHg 66%
    15:00 +14°C° 0 mm 1 mps 746 mmHg 72%
    16:00 +12°C° 0 mm 1 mps 746 mmHg 79%
    17:00 +12°C° 0 mm 1 mps 747 mmHg 80%
    18:00 +11°C° 0 mm 1 mps 747 mmHg 81%
    19:00 +11°C° 0 mm 1 mps 747 mmHg 82%
    20:00 +10°C° 0 mm 1 mps 747 mmHg 81%
    21:00 +10°C° 0 mm 1 mps 747 mmHg 80%
    22:00 +10°C° 0 mm 1 mps 748 mmHg 79%
    23:00 +10°C° 0 mm 1 mps 748 mmHg 78%
    Show more